Hot Springs, VA

6:50 PM EDT on March 23, 2017 (GMT -0400)
Ingalls

Weather History for KHSP - January, 2015

Change the Weather History Date:

Monday, January 19, 2015

  Actual Average Record
Temperature  
Mean Temperature 34 °F -  
Max Temperature 41 °F 29 °F 50 °F (2017)
Min Temperature 28 °F 16 °F -7 °F (1997)
Degree Days  
Heating Degree Days 30    
Moisture  
Dew Point 21 °F    
Average Humidity 60    
Maximum Humidity 96    
Minimum Humidity 37    
Precipitation  
Precipitation 0.00 in - - ()
Sea Level Pressure  
Sea Level Pressure 29.85 in    
Wind  
Wind Speed 19 mph (West)    
Max Wind Speed 30 mph    
Max Gust Speed 40 mph    
Visibility 10 miles    
Events      
Averages and records for this station are not official NWS values.
T = Trace of Precipitation, MM = Missing Value Source: NWS Daily Summary

Daily Weather History Graph

Daily Weather History Graph

Search for Another Location

Airport or City:

Trip Planner

Search our weather history database for the weather conditions in past years. The results will help you decide how hot, cold, wet, or windy it might be!

Date:

Astronomy

Jan. 19, 2015 Rise Set
Actual Time 7:32 AM EST 5:27 PM EST
Civil Twilight 7:03 AM EST 5:56 PM EST
Nautical Twilight 6:31 AM EST 6:28 PM EST
Astronomical Twilight 6:00 AM EST 7:00 PM EST
Moon 6:23 AM EST (1/19) 4:53 PM EST (1/19)
Length of Visible Light 10h 52m
Length of Day
9h 55m
Waning Crescent, 1% of the Moon is Illuminated
Jan 19
Waning Crescent
Jan 20
New
Jan 26
First Quarter
Feb 3
Full
Feb 11
Last Quarter

Hourly Weather History & Observations

Time (EST) Temp. Windchill Dew Point Humidity Pressure Visibility Wind Dir Wind Speed Gust Speed Precip Events Conditions
12:15 AM 31.3 °F 18.9 °F 30.2 °F 96% 29.77 in 10.0 mi WNW 20.7 mph 31.1 mph N/A   Overcast
12:35 AM 31.8 °F 19.3 °F 29.1 °F 90% 29.78 in 10.0 mi WNW 21.9 mph 28.8 mph N/A   Overcast
12:55 AM 32.0 °F 18.9 °F 26.4 °F 80% 29.78 in 10.0 mi WNW 24.2 mph 39.1 mph N/A   Overcast
1:15 AM 32.0 °F 18.1 °F 25.7 °F 78% 29.78 in 10.0 mi WNW 27.6 mph 36.8 mph N/A   Overcast
1:35 AM 32.0 °F 18.6 °F 25.7 °F 78% 29.78 in 10.0 mi West 25.3 mph 34.5 mph N/A   Overcast
1:55 AM 32.0 °F 17.9 °F 25.5 °F 77% 29.79 in 10.0 mi West 28.8 mph 40.3 mph N/A   Overcast
2:15 AM 32.0 °F 19.5 °F 25.3 °F 76% 29.80 in 10.0 mi WNW 21.9 mph 38.0 mph N/A   Overcast
2:35 AM 32.0 °F 17.6 °F 24.8 °F 75% 29.80 in 10.0 mi West 29.9 mph 38.0 mph N/A   Overcast
2:55 AM 32.0 °F 18.1 °F 24.4 °F 74% 29.81 in 10.0 mi WNW 27.6 mph 36.8 mph N/A   Overcast
3:15 AM 32.0 °F 18.9 °F 24.1 °F 73% 29.81 in 10.0 mi West 24.2 mph 35.7 mph N/A   Overcast
3:35 AM 31.8 °F 18.1 °F 23.9 °F 73% 29.81 in 10.0 mi West 26.5 mph 38.0 mph N/A   Overcast
3:55 AM 31.6 °F 19.7 °F 23.9 °F 73% 29.82 in 10.0 mi WNW 19.6 mph 38.0 mph N/A   Overcast
4:15 AM 31.5 °F 18.8 °F 23.9 °F 74% 29.82 in 10.0 mi West 21.9 mph 34.5 mph N/A   Overcast
4:35 AM 31.1 °F 18.9 °F 23.9 °F 75% 29.83 in 10.0 mi West 19.6 mph 32.2 mph N/A   Overcast
4:55 AM 31.1 °F 17.4 °F 24.3 °F 76% 29.83 in 10.0 mi West 25.3 mph 33.4 mph N/A   Overcast
5:15 AM 30.9 °F 19.1 °F 24.6 °F 77% 29.83 in 10.0 mi West 18.4 mph 26.5 mph N/A   Overcast
5:35 AM 30.7 °F 17.8 °F 24.8 °F 79% 29.84 in 10.0 mi WNW 21.9 mph 29.9 mph N/A   Overcast
5:55 AM 30.9 °F 18.7 °F 24.8 °F 78% 29.84 in 10.0 mi West 19.6 mph 32.2 mph N/A   Overcast
6:15 AM 30.7 °F 16.7 °F 24.4 °F 77% 29.83 in 10.0 mi WNW 26.5 mph 36.8 mph N/A   Overcast
6:35 AM 30.6 °F 19.4 °F 24.4 °F 78% 29.84 in 10.0 mi WNW 16.1 mph 25.3 mph N/A   Overcast
6:55 AM 30.2 °F 20.8 °F 25.0 °F 81% 29.84 in 10.0 mi WNW 11.5 mph 24.2 mph N/A   Overcast
7:15 AM 29.7 °F 17.8 °F 24.3 °F 80% 29.85 in 10.0 mi WNW 17.3 mph 26.5 mph N/A   Overcast
7:35 AM 29.3 °F 18.2 °F 24.1 °F 81% 29.85 in 10.0 mi WNW 15.0 mph 27.6 mph N/A   Overcast
7:55 AM 29.1 °F 15.1 °F 23.0 °F 78% 29.84 in 10.0 mi WNW 24.2 mph 31.1 mph N/A   Mostly Cloudy
8:15 AM 28.9 °F 15.1 °F 22.8 °F 78% 29.84 in 10.0 mi WNW 23.0 mph 32.2 mph N/A   Scattered Clouds
8:35 AM 29.1 °F 15.1 °F 22.3 °F 76% 29.84 in 10.0 mi West 24.2 mph 35.7 mph N/A   Scattered Clouds
8:55 AM 29.3 °F 17.0 °F 21.7 °F 73% 29.85 in 10.0 mi WNW 18.4 mph 34.5 mph N/A   Scattered Clouds
9:15 AM 29.5 °F 18.0 °F 21.2 °F 71% 29.87 in 10.0 mi WNW 16.1 mph 29.9 mph N/A   Clear
9:35 AM 30.2 °F 18.5 °F 21.2 °F 69% 29.88 in 10.0 mi West 17.3 mph 24.2 mph N/A   Clear
9:55 AM 30.9 °F 19.1 °F 20.8 °F 66% 29.89 in 10.0 mi West 18.4 mph 26.5 mph N/A   Clear
10:10 AM 31.1 °F 19.7 °F 21.6 °F 68% 29.90 in 10.0 mi WNW 17.3 mph - N/A   Clear
10:35 AM 31.8 °F 20.6 °F 21.2 °F 65% 29.90 in 10.0 mi WNW 17.3 mph 21.9 mph N/A   Clear
10:55 AM 32.7 °F 23.0 °F 21.6 °F 64% 29.91 in 10.0 mi West 13.8 mph 21.9 mph N/A   Clear
11:15 AM 33.4 °F 23.9 °F 20.8 °F 60% 29.91 in 10.0 mi West 13.8 mph 17.3 mph N/A   Clear
11:35 AM 34.2 °F 24.8 °F 20.7 °F 58% 29.90 in 10.0 mi West 13.8 mph - N/A   Clear
11:55 AM 35.1 °F 25.9 °F 20.7 °F 56% 29.89 in 10.0 mi West 13.8 mph 19.6 mph N/A   Clear
12:15 PM 35.8 °F 27.8 °F 20.7 °F 54% 29.89 in 10.0 mi West 11.5 mph - N/A   Clear
12:35 PM 37.0 °F 28.9 °F 20.7 °F 52% 29.88 in 10.0 mi West 12.7 mph 18.4 mph N/A   Clear
12:55 PM 37.8 °F 29.8 °F 20.1 °F 49% 29.87 in 10.0 mi West 12.7 mph - N/A   Clear
1:15 PM 38.3 °F 30.1 °F 19.4 °F 47% 29.87 in 10.0 mi West 13.8 mph 20.7 mph N/A   Clear
1:35 PM 39.2 °F 31.2 °F 19.2 °F 45% 29.86 in 10.0 mi West 13.8 mph 20.7 mph N/A   Clear
1:55 PM 39.4 °F 31.4 °F 19.0 °F 44% 29.85 in 10.0 mi West 13.8 mph 19.6 mph N/A   Clear
2:15 PM 40.1 °F 31.0 °F 18.3 °F 42% 29.85 in 10.0 mi West 18.4 mph 24.2 mph N/A   Clear
2:35 PM 40.3 °F 32.6 °F 18.3 °F 41% 29.85 in 10.0 mi West 13.8 mph - N/A   Clear
2:55 PM 41.0 °F 33.9 °F 18.5 °F 40% 29.85 in 10.0 mi West 12.7 mph 17.3 mph N/A   Clear
3:15 PM 41.2 °F 33.4 °F 18.9 °F 41% 29.85 in 10.0 mi West 15.0 mph 18.4 mph N/A   Clear
3:35 PM 41.4 °F 34.7 °F 18.5 °F 40% 29.85 in 10.0 mi West 11.5 mph 19.6 mph N/A   Clear
3:55 PM 41.5 °F 34.6 °F 17.2 °F 38% 29.85 in 10.0 mi West 12.7 mph 19.6 mph N/A   Clear
4:15 PM 41.4 °F 34.7 °F 18.0 °F 39% 29.85 in 10.0 mi West 11.5 mph 18.4 mph N/A   Clear
4:55 PM 40.5 °F 32.8 °F 15.8 °F 37% 29.86 in 10.0 mi West 13.8 mph 21.9 mph N/A   Clear
5:15 PM 39.9 °F 31.8 °F 16.3 °F 38% 29.86 in 10.0 mi West 15.0 mph - N/A   Clear
5:35 PM 38.3 °F 31.4 °F 17.6 °F 43% 29.87 in 10.0 mi West 10.4 mph - N/A   Clear
5:55 PM 38.5 °F 31.1 °F 17.8 °F 43% 29.87 in 10.0 mi West 11.5 mph - N/A   Clear
6:15 PM 38.3 °F 30.5 °F 18.3 °F 45% 29.87 in 10.0 mi West 12.7 mph - N/A   Clear
6:35 PM 38.8 °F 30.8 °F 18.5 °F 44% 29.87 in 10.0 mi West 13.8 mph - N/A   Clear
6:55 PM 38.8 °F 30.8 °F 18.5 °F 44% 29.87 in 10.0 mi West 13.8 mph 19.6 mph N/A   Clear
7:15 PM 39.0 °F 31.0 °F 18.5 °F 44% 29.87 in 10.0 mi West 13.8 mph - N/A   Clear
7:35 PM 38.1 °F 31.7 °F 18.9 °F 46% 29.87 in 10.0 mi West 9.2 mph - N/A   Clear
7:55 PM 37.4 °F 30.8 °F 19.2 °F 48% 29.87 in 10.0 mi West 9.2 mph - N/A   Clear
8:15 PM 38.1 °F 31.2 °F 19.4 °F 47% 29.87 in 10.0 mi West 10.4 mph - N/A   Clear
8:35 PM 37.9 °F 30.9 °F 19.9 °F 48% 29.86 in 10.0 mi West 10.4 mph - N/A   Clear
8:55 PM 38.3 °F 31.4 °F 20.1 °F 48% 29.87 in 10.0 mi West 10.4 mph - N/A   Clear
9:15 PM 37.9 °F 31.5 °F 20.3 °F 49% 29.87 in 10.0 mi West 9.2 mph - N/A   Clear
9:35 PM 37.8 °F 29.8 °F 20.3 °F 49% 29.86 in 10.0 mi West 12.7 mph - N/A   Clear
9:55 PM 38.5 °F 30.7 °F 20.3 °F 48% 29.86 in 10.0 mi West 12.7 mph - N/A   Clear
10:15 PM 38.5 °F 30.7 °F 20.3 °F 48% 29.87 in 10.0 mi West 12.7 mph - N/A   Clear
10:35 PM 38.5 °F 31.1 °F 20.1 °F 48% 29.86 in 10.0 mi West 11.5 mph - N/A   Clear
10:55 PM 38.3 °F 31.4 °F 20.3 °F 48% 29.86 in 10.0 mi West 10.4 mph - N/A   Clear
11:15 PM 38.1 °F 30.2 °F 20.3 °F 49% 29.86 in 10.0 mi West 12.7 mph - N/A   Clear
11:35 PM 37.9 °F 30.0 °F 20.3 °F 49% 29.85 in 10.0 mi West 12.7 mph - N/A   Clear
11:55 PM 38.5 °F 30.3 °F 20.3 °F 48% 29.85 in 10.0 mi West 13.8 mph - N/A   Clear